^^

Weather Underground History

Daily Summary for February 8, 2018 Units:  Metric    English   Both
Daily Weekly Monthly Yearly
  High: Low: Average:
Temperature: 2 °C -2 °C 0.2 °C
Dew Point: 1 °C -4 °C -1.2 °C
Humidity: 95% 81% 89%
Wind Speed: 13km/h 0km/h 4.7km/h
Wind Gust: 18km/h - -
Wind- - ENE
Pressure: 1028.8 hPa 1015.2 hPa -
Precipitation: 0.0 mm    
 
 
Tabular Data for February 8, 2018
Time Temperature Dew Point Pressure Wind Wind Speed Wind Gust Humidity Rainfall Rate (Hourly) solar
00:02 -1 °C -3 °C 1028.8 hPa East 6 km/h 8 km/h 90% 0.0 mm 0 W/m2
00:07 -1 °C -3 °C 1028.8 hPa ENE 5 km/h 10 km/h 90% 0.0 mm 0 W/m2
00:12 -1 °C -3 °C 1028.8 hPa ENE 2 km/h 8 km/h 90% 0.0 mm 0 W/m2
00:19 -2 °C -3 °C 1028.8 hPa ENE 5 km/h 14 km/h 90% 0.0 mm 0 W/m2
00:24 -2 °C -3 °C 1028.8 hPa NE 8 km/h 11 km/h 89% 0.0 mm 0 W/m2
00:29 -2 °C -3 °C 1028.5 hPa NE 10 km/h 10 km/h 90% 0.0 mm 0 W/m2
00:31 -2 °C -3 °C 1028.5 hPa NE 5 km/h 10 km/h 90% 0.0 mm 0 W/m2
00:36 -2 °C -3 °C 1028.5 hPa NE 3 km/h 10 km/h 90% 0.0 mm 0 W/m2
00:41 -2 °C -3 °C 1028.5 hPa ENE 5 km/h 10 km/h 90% 0.0 mm 0 W/m2
00:49 -2 °C -3 °C 1028.5 hPa ENE 4 km/h 11 km/h 90% 0.0 mm 0 W/m2
00:54 -2 °C -3 °C 1028.1 hPa NE 5 km/h 11 km/h 90% 0.0 mm 0 W/m2
00:59 -2 °C -3 °C 1028.1 hPa NE 6 km/h 8 km/h 90% 0.0 mm 0 W/m2
01:04 -2 °C -3 °C 1028.1 hPa NE 6 km/h 10 km/h 90% 0.0 mm 0 W/m2
01:09 -2 °C -3 °C 1028.1 hPa NE 3 km/h 10 km/h 90% 0.0 mm 0 W/m2
01:14 -2 °C -3 °C 1028.1 hPa NE 3 km/h 11 km/h 90% 0.0 mm 0 W/m2
01:19 -2 °C -3 °C 1028.1 hPa NE 3 km/h 6 km/h 90% 0.0 mm 0 W/m2
01:24 -2 °C -3 °C 1028.1 hPa ENE 2 km/h 8 km/h 90% 0.0 mm 0 W/m2
01:29 -2 °C -3 °C 1028.1 hPa East 8 km/h 10 km/h 90% 0.0 mm 0 W/m2
01:34 -2 °C -3 °C 1028.1 hPa ENE 5 km/h 10 km/h 90% 0.0 mm 0 W/m2
01:43 -2 °C -3 °C 1028.1 hPa ENE 5 km/h 10 km/h 89% 0.0 mm 0 W/m2
01:49 -2 °C -3 °C 1028.1 hPa NE 5 km/h 8 km/h 89% 0.0 mm 0 W/m2
01:54 -2 °C -3 °C 1028.1 hPa NE 2 km/h 10 km/h 89% 0.0 mm 0 W/m2
01:59 -2 °C -3 °C 1028.1 hPa ENE 2 km/h 6 km/h 89% 0.0 mm 0 W/m2
02:04 -2 °C -3 °C 1028.1 hPa NE 3 km/h 16 km/h 90% 0.0 mm 0 W/m2
02:10 -1 °C -3 °C 1028.1 hPa ENE 5 km/h 10 km/h 90% 0.0 mm 0 W/m2
02:15 -1 °C -3 °C 1028.1 hPa NE 6 km/h 11 km/h 89% 0.0 mm 0 W/m2
02:20 -1 °C -3 °C 1028.1 hPa NE 5 km/h 8 km/h 89% 0.0 mm 0 W/m2
02:25 -1 °C -3 °C 1028.1 hPa NE 3 km/h 5 km/h 88% 0.0 mm 0 W/m2
02:30 -1 °C -3 °C 1027.8 hPa Calm   6 km/h 87% 0.0 mm 0 W/m2
02:35 -1 °C -3 °C 1027.8 hPa Calm   6 km/h 87% 0.0 mm 0 W/m2
02:40 -1 °C -3 °C 1027.8 hPa ENE 5 km/h 10 km/h 88% 0.0 mm 0 W/m2
02:45 -1 °C -3 °C 1027.8 hPa NE 3 km/h 8 km/h 88% 0.0 mm 0 W/m2
02:50 -1 °C -3 °C 1027.8 hPa NNE 5 km/h 10 km/h 88% 0.0 mm 0 W/m2
02:58 -2 °C -3 °C 1027.8 hPa ENE 5 km/h 10 km/h 88% 0.0 mm 0 W/m2
03:04 -2 °C -3 °C 1027.4 hPa NE 6 km/h 10 km/h 88% 0.0 mm 0 W/m2
03:09 -2 °C -3 °C 1027.4 hPa ENE 8 km/h 16 km/h 88% 0.0 mm 0 W/m2
03:18 -2 °C -3 °C 1027.4 hPa NE 6 km/h 11 km/h 88% 0.0 mm 0 W/m2
03:28 -2 °C -3 °C 1027.4 hPa East 2 km/h 6 km/h 88% 0.0 mm 0 W/m2
03:37 -2 °C -3 °C 1027.4 hPa NE 6 km/h 11 km/h 88% 0.0 mm 0 W/m2
03:40 -2 °C -3 °C 1027.4 hPa ENE 5 km/h 6 km/h 88% 0.0 mm 0 W/m2
03:45 -2 °C -3 °C 1027.4 hPa ENE 5 km/h 10 km/h 88% 0.0 mm 0 W/m2
03:53 -2 °C -3 °C 1027.4 hPa ENE 2 km/h 8 km/h 88% 0.0 mm 0 W/m2
03:55 -2 °C -3 °C 1027.4 hPa ENE 3 km/h 8 km/h 88% 0.0 mm 0 W/m2
04:00 -2 °C -3 °C 1027.4 hPa NE 3 km/h 6 km/h 88% 0.0 mm 0 W/m2
04:05 -2 °C -3 °C 1027.4 hPa NE 3 km/h 6 km/h 88% 0.0 mm 0 W/m2
04:10 -2 °C -3 °C 1027.4 hPa NE 3 km/h 6 km/h 88% 0.0 mm 0 W/m2
04:15 -2 °C -3 °C 1027.4 hPa NE 3 km/h 8 km/h 88% 0.0 mm 0 W/m2
04:20 -2 °C -3 °C 1027.4 hPa NE 3 km/h 3 km/h 88% 0.0 mm 0 W/m2
04:25 -2 °C -3 °C 1027.4 hPa NE 3 km/h 3 km/h 89% 0.0 mm 0 W/m2
04:30 -2 °C -3 °C 1027.4 hPa NE 3 km/h 5 km/h 89% 0.0 mm 0 W/m2
04:35 -2 °C -3 °C 1027.4 hPa ENE 3 km/h 11 km/h 89% 0.0 mm 0 W/m2
04:40 -2 °C -3 °C 1027.1 hPa ENE 3 km/h 6 km/h 89% 0.0 mm 0 W/m2
04:45 -2 °C -3 °C 1027.4 hPa ENE 2 km/h 2 km/h 89% 0.0 mm 0 W/m2
04:50 -2 °C -3 °C 1027.1 hPa ENE 3 km/h 5 km/h 89% 0.0 mm 0 W/m2
04:55 -2 °C -4 °C 1027.1 hPa NE 3 km/h 8 km/h 89% 0.0 mm 0 W/m2
05:00 -2 °C -4 °C 1027.1 hPa NE 3 km/h 5 km/h 89% 0.0 mm 0 W/m2
05:05 -2 °C -4 °C 1027.1 hPa NE 3 km/h 5 km/h 89% 0.0 mm 0 W/m2
05:10 -2 °C -4 °C 1027.1 hPa NE 3 km/h 3 km/h 89% 0.0 mm 0 W/m2
05:15 -2 °C -4 °C 1027.1 hPa NE 2 km/h 5 km/h 89% 0.0 mm 0 W/m2
05:20 -2 °C -4 °C 1027.1 hPa NE 2 km/h 5 km/h 89% 0.0 mm 0 W/m2
05:25 -2 °C -3 °C 1027.1 hPa NE 2 km/h 3 km/h 90% 0.0 mm 0 W/m2
05:30 -2 °C -3 °C 1026.8 hPa NE 2 km/h 8 km/h 90% 0.0 mm 0 W/m2
05:35 -2 °C -3 °C 1026.8 hPa ENE 2 km/h 6 km/h 90% 0.0 mm 0 W/m2
05:40 -2 °C -3 °C 1026.8 hPa ENE 2 km/h   90% 0.0 mm 0 W/m2
05:45 -2 °C -3 °C 1026.8 hPa ENE 2 km/h 3 km/h 90% 0.0 mm 0 W/m2
05:50 -2 °C -3 °C 1026.8 hPa ENE 2 km/h 5 km/h 89% 0.0 mm 0 W/m2
05:55 -2 °C -3 °C 1026.8 hPa NE 2 km/h 3 km/h 89% 0.0 mm 0 W/m2
06:00 -2 °C -3 °C 1026.8 hPa NE 2 km/h 5 km/h 89% 0.0 mm 0 W/m2
06:05 -2 °C -3 °C 1026.8 hPa NE 3 km/h 6 km/h 89% 0.0 mm 0 W/m2
06:10 -2 °C -3 °C 1026.8 hPa NE 3 km/h 8 km/h 89% 0.0 mm 0 W/m2
06:15 -2 °C -3 °C 1026.8 hPa ENE 3 km/h 6 km/h 89% 0.0 mm 0 W/m2
06:20 -2 °C -3 °C 1026.8 hPa ENE 3 km/h 5 km/h 89% 0.0 mm 0 W/m2
06:25 -2 °C -3 °C 1026.8 hPa NE 3 km/h 5 km/h 89% 0.0 mm 0 W/m2
06:30 -2 °C -3 °C 1026.8 hPa NE 3 km/h 3 km/h 89% 0.0 mm 0 W/m2
06:35 -2 °C -4 °C 1026.8 hPa NE 2 km/h 5 km/h 88% 0.0 mm 0 W/m2
06:40 -2 °C -4 °C 1026.8 hPa NE 3 km/h   89% 0.0 mm 0 W/m2
06:45 -2 °C -4 °C 1026.8 hPa NE 2 km/h 5 km/h 89% 0.0 mm 0 W/m2
06:50 -2 °C -4 °C 1026.8 hPa NE 2 km/h 5 km/h 89% 0.0 mm 0 W/m2
06:55 -2 °C -4 °C 1026.8 hPa NE 2 km/h   89% 0.0 mm 0 W/m2
07:00 -2 °C -4 °C 1026.8 hPa NE 2 km/h 10 km/h 89% 0.0 mm 0 W/m2
07:05 -2 °C -4 °C 1026.4 hPa NE 3 km/h 11 km/h 89% 0.0 mm 0 W/m2
07:10 -2 °C -4 °C 1026.4 hPa NNE 5 km/h 8 km/h 89% 0.0 mm 0 W/m2
07:15 -2 °C -4 °C 1026.4 hPa NNE 5 km/h 11 km/h 89% 0.0 mm 0 W/m2
07:20 -2 °C -4 °C 1026.4 hPa NNE 5 km/h 6 km/h 89% 0.0 mm 0 W/m2
07:25 -2 °C -4 °C 1026.4 hPa NE 5 km/h 10 km/h 89% 0.0 mm 0 W/m2
07:30 -2 °C -4 °C 1026.4 hPa NE 5 km/h 5 km/h 89% 0.0 mm 0 W/m2
07:35 -2 °C -4 °C 1026.1 hPa ENE 5 km/h 6 km/h 89% 0.0 mm 0 W/m2
07:45 -2 °C -4 °C 1026.1 hPa ENE 5 km/h 6 km/h 89% 0.0 mm 0 W/m2
07:50 -2 °C -3 °C 1025.7 hPa ENE 5 km/h 10 km/h 89% 0.0 mm 0 W/m2
07:55 -2 °C -4 °C 1025.7 hPa ENE 6 km/h 6 km/h 88% 0.0 mm 0 W/m2
08:00 -2 °C -3 °C 1025.7 hPa ENE 5 km/h 8 km/h 88% 0.0 mm 0 W/m2
08:05 -2 °C -3 °C 1025.7 hPa ENE 5 km/h 11 km/h 88% 0.0 mm 0 W/m2
08:10 -2 °C -3 °C 1025.7 hPa ENE 5 km/h 8 km/h 87% 0.0 mm 0 W/m2
08:20 -2 °C -3 °C 1025.4 hPa ENE 6 km/h 11 km/h 87% 0.0 mm 5 W/m2
08:25 -2 °C -3 °C 1025.4 hPa ENE 6 km/h 16 km/h 86% 0.0 mm 7 W/m2
08:30 -1 °C -2 °C 1025.4 hPa ENE 8 km/h 14 km/h 92% 0.0 mm 9 W/m2
08:35 -1 °C -3 °C 1025.4 hPa ENE 6 km/h 18 km/h 85% 0.0 mm 11 W/m2
08:40 -1 °C -3 °C 1025.4 hPa ENE 6 km/h 6 km/h 84% 0.0 mm 12 W/m2
08:45 -1 °C -3 °C 1025.4 hPa ENE 5 km/h 6 km/h 84% 0.0 mm 14 W/m2
08:50 -1 °C -3 °C 1025.7 hPa NE 3 km/h 8 km/h 84% 0.0 mm 19 W/m2
08:55 -1 °C -4 °C 1025.7 hPa NNE 5 km/h 10 km/h 84% 0.0 mm 19 W/m2
09:00 -1 °C -3 °C 1025.7 hPa NE 5 km/h 8 km/h 85% 0.0 mm 35 W/m2
09:05 -1 °C -3 °C 1025.7 hPa NE 5 km/h 8 km/h 85% 0.0 mm 42 W/m2
09:10 -1 °C -3 °C 1025.4 hPa NE 5 km/h 8 km/h 85% 0.0 mm 51 W/m2
09:15 -1 °C -3 °C 1025.4 hPa ENE 5 km/h 8 km/h 85% 0.0 mm 58 W/m2
09:20 -1 °C -3 °C 1025.4 hPa ENE 5 km/h 8 km/h 85% 0.0 mm 65 W/m2
09:25 -1 °C -3 °C 1025.4 hPa ENE 5 km/h 10 km/h 85% 0.0 mm 72 W/m2
09:30 -1 °C -3 °C 1025.4 hPa NE 5 km/h 11 km/h 85% 0.0 mm 79 W/m2
09:35 -1 °C -3 °C 1025.1 hPa NE 3 km/h 6 km/h 85% 0.0 mm 86 W/m2
09:40 -1 °C -3 °C 1025.1 hPa NE 3 km/h 8 km/h 85% 0.0 mm 91 W/m2
09:45 -1 °C -3 °C 1025.1 hPa NE 2 km/h 5 km/h 85% 0.0 mm 100 W/m2
10:04 -1 °C -3 °C 1025.1 hPa ENE 3 km/h 8 km/h 85% 0.0 mm 116 W/m2
10:09 0 °C -2 °C 1025.1 hPa ENE 2 km/h 6 km/h 84% 0.0 mm 130 W/m2
10:16 0 °C -3 °C 1025.1 hPa ENE 3 km/h 5 km/h 83% 0.0 mm 39 W/m2
10:21 0 °C -3 °C 1025.1 hPa ENE 3 km/h 8 km/h 82% 0.0 mm 54 W/m2
10:26 0 °C -3 °C 1024.7 hPa ENE 3 km/h 8 km/h 82% 0.0 mm 105 W/m2
10:30 0 °C -3 °C 1024.7 hPa NE 10 km/h 10 km/h 83% 0.0 mm 213 W/m2
10:35 0 °C -2 °C 1024.7 hPa Calm   8 km/h 84% 0.0 mm 190 W/m2
10:40 0 °C -2 °C 1024.7 hPa ENE 3 km/h 11 km/h 83% 0.0 mm 185 W/m2
10:45 1 °C -2 °C 1024.7 hPa ENE 5 km/h 11 km/h 83% 0.0 mm 186 W/m2
10:54 1 °C -2 °C 1024.4 hPa Calm   11 km/h 82% 0.0 mm 193 W/m2
10:59 1 °C -2 °C 1024.4 hPa NE 6 km/h 8 km/h 82% 0.0 mm 216 W/m2
11:04 1 °C -2 °C 1024.4 hPa NE 5 km/h 8 km/h 82% 0.0 mm 186 W/m2
11:09 1 °C -2 °C 1024.4 hPa ENE 5 km/h 10 km/h 82% 0.0 mm 148 W/m2
11:26 1 °C -2 °C 1024.0 hPa NE 6 km/h 14 km/h 81% 0.0 mm 148 W/m2
11:31 1 °C -2 °C 1024.0 hPa ENE 2 km/h 11 km/h 81% 0.0 mm 151 W/m2
11:36 1 °C -2 °C 1024.0 hPa NNE 8 km/h 14 km/h 81% 0.0 mm 162 W/m2
11:44 1 °C -2 °C 1023.7 hPa NE 5 km/h 11 km/h 81% 0.0 mm 162 W/m2
11:50 1 °C -2 °C 1023.7 hPa NE 5 km/h 8 km/h 81% 0.0 mm 130 W/m2
11:56 1 °C -2 °C 1023.4 hPa ENE 3 km/h 10 km/h 81% 0.0 mm 128 W/m2
12:02 1 °C -2 °C 1023.4 hPa NE 10 km/h 13 km/h 81% 0.0 mm 123 W/m2
12:08 1 °C -2 °C 1023.4 hPa ENE 4 km/h 8 km/h 81% 0.0 mm 114 W/m2
12:13 1 °C -2 °C 1023.4 hPa ENE 6 km/h 11 km/h 81% 0.0 mm 88 W/m2
12:18 1 °C -1 °C 1023.4 hPa Calm   8 km/h 82% 0.0 mm 77 W/m2
12:23 1 °C -1 °C 1023.4 hPa Calm   3 km/h 82% 0.0 mm 62 W/m2
12:29 1 °C -1 °C 1023.4 hPa NE 2 km/h 3 km/h 82% 0.0 mm 56 W/m2
12:37 1 °C -1 °C 1023.0 hPa Calm   5 km/h 82% 0.0 mm 42 W/m2
12:42 1 °C -1 °C 1023.0 hPa ENE 3 km/h 6 km/h 83% 0.0 mm 42 W/m2
12:49 1 °C -1 °C 1022.7 hPa Calm   3 km/h 83% 0.0 mm 39 W/m2
12:57 2 °C -1 °C 1022.7 hPa ENE 3 km/h 8 km/h 83% 0.0 mm 35 W/m2
13:03 2 °C -1 °C 1022.7 hPa East 6 km/h 6 km/h 83% 0.0 mm 37 W/m2
13:10 2 °C -1 °C 1022.4 hPa East 11 km/h 11 km/h 83% 0.0 mm 39 W/m2
13:16 2 °C -1 °C 1022.4 hPa ESE 10 km/h 11 km/h 84% 0.0 mm 39 W/m2
13:26 2 °C -1 °C 1022.0 hPa East 6 km/h 11 km/h 84% 0.0 mm 39 W/m2
13:32 2 °C -1 °C 1022.0 hPa East 13 km/h 13 km/h 84% 0.0 mm 37 W/m2
13:43 2 °C 0 °C 1022.0 hPa East 8 km/h 8 km/h 85% 0.0 mm 30 W/m2
13:52 2 °C 0 °C 1021.7 hPa East 6 km/h 10 km/h 86% 0.0 mm 30 W/m2
13:59 2 °C 0 °C 1021.7 hPa ENE 8 km/h 10 km/h 86% 0.0 mm 25 W/m2
14:05 2 °C 0 °C 1021.7 hPa East 6 km/h 8 km/h 87% 0.0 mm 21 W/m2
14:10 2 °C 0 °C 1021.7 hPa East 3 km/h 6 km/h 87% 0.0 mm 23 W/m2
14:17 2 °C 0 °C 1021.7 hPa East 6 km/h 6 km/h 87% 0.0 mm 25 W/m2
14:20 2 °C 0 °C 1021.7 hPa East 5 km/h 8 km/h 88% 0.0 mm 21 W/m2
14:25 2 °C 0 °C 1021.7 hPa East 3 km/h   88% 0.0 mm 19 W/m2
14:30 2 °C 0 °C 1021.7 hPa East 3 km/h 8 km/h 88% 0.0 mm 18 W/m2
14:35 2 °C 1 °C 1021.7 hPa East 5 km/h 6 km/h 89% 0.0 mm 16 W/m2
14:40 2 °C 1 °C 1021.7 hPa East 5 km/h 5 km/h 89% 0.0 mm 14 W/m2
14:45 2 °C 1 °C 1021.7 hPa East 3 km/h 3 km/h 89% 0.0 mm 12 W/m2
14:50 2 °C 1 °C 1021.3 hPa East 5 km/h 18 km/h 89% 0.0 mm 14 W/m2
14:55 2 °C 1 °C 1021.3 hPa East 8 km/h 16 km/h 90% 0.0 mm 11 W/m2
15:00 2 °C 1 °C 1021.3 hPa East 10 km/h 13 km/h 90% 0.0 mm 14 W/m2
15:05 2 °C 1 °C 1021.3 hPa East 8 km/h 8 km/h 90% 0.0 mm 12 W/m2
15:10 2 °C 1 °C 1021.3 hPa East 6 km/h 6 km/h 90% 0.0 mm 11 W/m2
15:15 2 °C 1 °C 1021.3 hPa East 5 km/h 6 km/h 90% 0.0 mm 9 W/m2
15:20 2 °C 1 °C 1021.0 hPa East 5 km/h 6 km/h 91% 0.0 mm 7 W/m2
15:25 2 °C 1 °C 1021.0 hPa East 5 km/h 8 km/h 91% 0.0 mm 7 W/m2
15:30 2 °C 1 °C 1021.0 hPa East 3 km/h 8 km/h 91% 0.0 mm 5 W/m2
15:35 2 °C 1 °C 1021.0 hPa East 3 km/h 3 km/h 91% 0.0 mm 5 W/m2
15:40 2 °C 1 °C 1021.0 hPa East 2 km/h 5 km/h 91% 0.0 mm 5 W/m2
15:45 2 °C 1 °C 1021.0 hPa East 2 km/h 5 km/h 91% 0.0 mm 0 W/m2
15:55 2 °C 1 °C 1021.0 hPa East 2 km/h 5 km/h 91% 0.0 mm 0 W/m2
16:00 2 °C 1 °C 1021.0 hPa East 2 km/h 6 km/h 91% 0.0 mm 0 W/m2
16:05 2 °C 1 °C 1021.0 hPa East 3 km/h 5 km/h 91% 0.0 mm 0 W/m2
16:10 2 °C 1 °C 1021.0 hPa East 3 km/h 5 km/h 91% 0.0 mm 0 W/m2
16:15 2 °C 1 °C 1021.0 hPa East 3 km/h 5 km/h 91% 0.0 mm 0 W/m2
16:20 2 °C 1 °C 1021.0 hPa East 3 km/h 6 km/h 91% 0.0 mm 0 W/m2
16:34 2 °C 1 °C 1021.0 hPa East 3 km/h 3 km/h 92% 0.0 mm 0 W/m2
16:39 2 °C 1 °C 1020.7 hPa Calm   5 km/h 92% 0.0 mm 0 W/m2
16:42 2 °C 1 °C 1020.7 hPa East 2 km/h 6 km/h 92% 0.0 mm 0 W/m2
16:47 2 °C 1 °C 1020.7 hPa East 5 km/h 6 km/h 92% 0.0 mm 0 W/m2
16:52 2 °C 1 °C 1020.7 hPa East 2 km/h 8 km/h 92% 0.0 mm 0 W/m2
16:55 2 °C 1 °C 1020.7 hPa East 6 km/h 6 km/h 92% 0.0 mm 0 W/m2
17:00 2 °C 1 °C 1020.7 hPa Calm   10 km/h 93% 0.0 mm 0 W/m2
17:05 2 °C 1 °C 1020.3 hPa East 3 km/h 5 km/h 93% 0.0 mm 0 W/m2
17:11 2 °C 1 °C 1020.3 hPa East 5 km/h 8 km/h 93% 0.0 mm 0 W/m2
17:16 2 °C 1 °C 1020.3 hPa East 3 km/h 5 km/h 93% 0.0 mm 0 W/m2
17:21 2 °C 1 °C 1020.3 hPa East 6 km/h 10 km/h 93% 0.0 mm 0 W/m2
17:34 2 °C 1 °C 1020.3 hPa East 6 km/h 10 km/h 93% 0.0 mm 0 W/m2
17:39 2 °C 1 °C 1020.0 hPa East 3 km/h 8 km/h 93% 0.0 mm 0 W/m2
17:40 2 °C 1 °C 1020.0 hPa East 13 km/h 13 km/h 93% 0.0 mm 0 W/m2
17:49 2 °C 1 °C 1020.0 hPa East 1 km/h 8 km/h 93% 0.0 mm 0 W/m2
17:58 2 °C 1 °C 1020.0 hPa ENE 5 km/h 6 km/h 93% 0.0 mm 0 W/m2
18:04 2 °C 1 °C 1020.0 hPa ENE 2 km/h 5 km/h 93% 0.0 mm 0 W/m2
18:09 2 °C 1 °C 1020.0 hPa ENE 3 km/h 3 km/h 93% 0.0 mm 0 W/m2
18:13 2 °C 1 °C 1020.0 hPa Calm   6 km/h 93% 0.0 mm 0 W/m2
18:18 2 °C 1 °C 1019.6 hPa East 8 km/h 11 km/h 93% 0.0 mm 0 W/m2
18:24 2 °C 1 °C 1019.6 hPa ENE 4 km/h 11 km/h 94% 0.0 mm 0 W/m2
18:29 2 °C 1 °C 1019.6 hPa East 10 km/h 10 km/h 94% 0.0 mm 0 W/m2
18:34 2 °C 1 °C 1019.6 hPa East 13 km/h 13 km/h 94% 0.0 mm 0 W/m2
18:39 2 °C 1 °C 1019.6 hPa East 2 km/h 10 km/h 94% 0.0 mm 0 W/m2
18:44 2 °C 1 °C 1019.6 hPa East 6 km/h 13 km/h 94% 0.0 mm 0 W/m2
18:49 2 °C 1 °C 1019.6 hPa ENE 5 km/h 6 km/h 94% 0.0 mm 0 W/m2
18:54 2 °C 1 °C 1019.6 hPa East 6 km/h 11 km/h 94% 0.0 mm 0 W/m2
19:00 2 °C 1 °C 1019.6 hPa East 8 km/h 8 km/h 94% 0.0 mm 0 W/m2
19:05 2 °C 1 °C 1019.3 hPa East 6 km/h 10 km/h 94% 0.0 mm 0 W/m2
19:10 2 °C 1 °C 1019.3 hPa East 3 km/h 10 km/h 94% 0.0 mm 0 W/m2
19:15 2 °C 1 °C 1019.3 hPa ENE 10 km/h 13 km/h 94% 0.0 mm 0 W/m2
19:20 2 °C 1 °C 1019.3 hPa East 8 km/h 8 km/h 94% 0.0 mm 0 W/m2
19:29 2 °C 1 °C 1019.0 hPa ENE 1 km/h 11 km/h 94% 0.0 mm 0 W/m2
19:34 2 °C 1 °C 1019.0 hPa ENE 3 km/h 6 km/h 94% 0.0 mm 0 W/m2
19:39 2 °C 1 °C 1019.0 hPa East 3 km/h 8 km/h 94% 0.0 mm 0 W/m2
19:40 2 °C 1 °C 1019.0 hPa ENE 5 km/h 10 km/h 94% 0.0 mm 0 W/m2
19:46 2 °C 1 °C 1018.6 hPa East 10 km/h 10 km/h 94% 0.0 mm 0 W/m2
19:51 2 °C 1 °C 1018.6 hPa East 5 km/h 10 km/h 94% 0.0 mm 0 W/m2
19:56 2 °C 1 °C 1018.6 hPa East 5 km/h 11 km/h 94% 0.0 mm 0 W/m2
20:01 2 °C 1 °C 1018.6 hPa ESE 8 km/h 11 km/h 94% 0.0 mm 0 W/m2
20:07 2 °C 1 °C 1018.3 hPa East 11 km/h 13 km/h 94% 0.0 mm 0 W/m2
20:29 2 °C 1 °C 1018.0 hPa East 6 km/h 11 km/h 94% 0.0 mm 0 W/m2
20:59 2 °C 1 °C 1017.6 hPa East 4 km/h 8 km/h 94% 0.0 mm 0 W/m2
21:00 2 °C 1 °C 1017.6 hPa East 5 km/h 8 km/h 94% 0.0 mm 0 W/m2
21:05 2 °C 1 °C 1017.6 hPa East 3 km/h 8 km/h 94% 0.0 mm 0 W/m2
21:10 2 °C 1 °C 1017.6 hPa East 3 km/h 6 km/h 94% 0.0 mm 0 W/m2
21:15 2 °C 1 °C 1017.6 hPa East 5 km/h 10 km/h 94% 0.0 mm 0 W/m2
21:21 2 °C 1 °C 1017.6 hPa East 5 km/h 8 km/h 94% 0.0 mm 0 W/m2
21:25 2 °C 1 °C 1017.6 hPa East 5 km/h 10 km/h 94% 0.0 mm 0 W/m2
21:30 2 °C 1 °C 1017.6 hPa East 5 km/h 6 km/h 94% 0.0 mm 0 W/m2
21:35 2 °C 1 °C 1017.6 hPa East 5 km/h 10 km/h 94% 0.0 mm 0 W/m2
21:40 2 °C 1 °C 1017.3 hPa East 5 km/h 8 km/h 94% 0.0 mm 0 W/m2
21:45 2 °C 1 °C 1017.3 hPa East 6 km/h 14 km/h 94% 0.0 mm 0 W/m2
21:50 2 °C 1 °C 1017.3 hPa East 8 km/h 14 km/h 94% 0.0 mm 0 W/m2
21:55 2 °C 1 °C 1017.3 hPa East 10 km/h 11 km/h 94% 0.0 mm 0 W/m2
22:00 2 °C 1 °C 1016.9 hPa ESE 8 km/h 10 km/h 94% 0.0 mm 0 W/m2
22:05 2 °C 1 °C 1016.9 hPa East 8 km/h 10 km/h 94% 0.0 mm 0 W/m2
22:10 2 °C 1 °C 1016.9 hPa ESE 8 km/h 10 km/h 94% 0.0 mm 0 W/m2
22:15 2 °C 1 °C 1016.9 hPa East 10 km/h 10 km/h 94% 0.0 mm 0 W/m2
22:20 2 °C 1 °C 1016.9 hPa ESE 8 km/h 10 km/h 94% 0.0 mm 0 W/m2
22:25 2 °C 1 °C 1016.6 hPa ESE 6 km/h 8 km/h 94% 0.0 mm 0 W/m2
22:30 2 °C 1 °C 1016.6 hPa ESE 8 km/h 11 km/h 94% 0.0 mm 0 W/m2
22:35 2 °C 1 °C 1016.6 hPa ESE 8 km/h 11 km/h 94% 0.0 mm 0 W/m2
22:40 2 °C 1 °C 1016.9 hPa ESE 8 km/h 8 km/h 94% 0.0 mm 0 W/m2
22:45 2 °C 1 °C 1016.6 hPa ESE 6 km/h 8 km/h 94% 0.0 mm 0 W/m2
22:50 2 °C 1 °C 1016.6 hPa ESE 6 km/h 10 km/h 94% 0.0 mm 0 W/m2
22:55 2 °C 1 °C 1016.3 hPa ESE 8 km/h 10 km/h 94% 0.0 mm 0 W/m2
23:00 2 °C 1 °C 1016.3 hPa East 8 km/h 11 km/h 94% 0.0 mm 0 W/m2
23:05 2 °C 1 °C 1016.3 hPa ESE 8 km/h 11 km/h 94% 0.0 mm 0 W/m2
23:10 2 °C 1 °C 1015.9 hPa ESE 8 km/h 13 km/h 94% 0.0 mm 0 W/m2
23:15 2 °C 1 °C 1015.9 hPa ESE 8 km/h 11 km/h 94% 0.0 mm 0 W/m2
23:20 2 °C 1 °C 1015.9 hPa ESE 8 km/h 8 km/h 94% 0.0 mm 0 W/m2
23:25 2 °C 1 °C 1015.6 hPa ESE 6 km/h 6 km/h 94% 0.0 mm 0 W/m2
23:30 2 °C 1 °C 1015.6 hPa East 6 km/h 11 km/h 94% 0.0 mm 0 W/m2
23:40 2 °C 1 °C 1015.6 hPa East 10 km/h 11 km/h 94% 0.0 mm 0 W/m2
23:45 2 °C 1 °C 1015.6 hPa ESE 10 km/h 10 km/h 94% 0.0 mm 0 W/m2
23:50 2 °C 1 °C 1015.2 hPa ESE 10 km/h 18 km/h 95% 0.0 mm 0 W/m2
23:55 2 °C 1 °C 1015.2 hPa ESE 13 km/h 13 km/h 95% 0.0 mm 0 W/m2
Compliments of Weather Underground - 4 mb